Weather History for Meadville, PA

Change the Weather History Date:

Friday, April 18, 2014

  Actual Average Record
Temperature  
Mean Temperature 52 °F -  
Max Temperature 64 °F 59 °F 84 °F (1976)
Min Temperature 39 °F 34 °F 20 °F (1980)
Degree Days  
Heating Degree Days 14    
Growing Degree Days 2 (Base 50)    
Moisture  
Dew Point 32 °F    
Average Humidity 50    
Maximum Humidity 82    
Minimum Humidity 34    
Precipitation  
Precipitation 0.00 in - - ()
Sea Level Pressure  
Sea Level Pressure 30.28 in    
Wind  
Wind Speed 7 mph (WNW)    
Max Wind Speed 12 mph    
Max Gust Speed 18 mph    
Visibility 10 miles    
Events      
Averages and records for this station are not official NWS values.
T = Trace of Precipitation, MM = Missing Value Source: NWS Daily Summary

Daily Weather History Graph

Daily Weather History Graph

Search for Another Location

Airport:

Trip Planner

Search our weather history database for the weather conditions in past years. The results will help you decide how hot, cold, wet, or windy it might be!

Date:

Astronomy

Apr. 18, 2014 Rise Set
Actual Time 6:36 AM EDT 8:04 PM EDT
Civil Twilight 6:07 AM EDT 8:33 PM EDT
Nautical Twilight 5:32 AM EDT 9:09 PM EDT
Astronomical Twilight 4:55 AM EDT 9:46 PM EDT
Moon 11:50 PM EDT (4/18) 8:55 AM EDT (4/18)
Length of Visible Light 14h 26m
Length of Day
13h 28m
Waning Gibbous, 87% of the Moon is Illuminated
Apr 18
Waning Gibbous
Apr 22
Last Quarter
Apr 29
New
May 6
First Quarter
May 14
Full

Hourly Weather History & Observations

Time (EDT) Temp. Windchill Dew Point Humidity Pressure Visibility Wind Dir Wind Speed Gust Speed Precip Events Conditions
12:53 AM 46.9 °F - 26.1 °F 44% 30.35 in 10.0 mi SE 8.1 mph - N/A   Clear
1:53 AM 45.0 °F 41.8 °F 25.0 °F 46% 30.33 in 10.0 mi Variable 5.8 mph - N/A   Clear
2:53 AM 44.1 °F 40.8 °F 26.1 °F 49% 30.31 in 10.0 mi Variable 5.8 mph - N/A   Clear
3:53 AM 43.0 °F 38.8 °F 26.1 °F 51% 30.31 in 10.0 mi Variable 6.9 mph - N/A   Clear
4:53 AM 42.1 °F 38.4 °F 27.0 °F 55% 30.30 in 10.0 mi Variable 5.8 mph - N/A   Clear
5:53 AM 41.0 °F 38.0 °F 28.0 °F 60% 30.31 in 10.0 mi Variable 4.6 mph - N/A   Clear
6:53 AM 39.9 °F 36.7 °F 28.0 °F 63% 30.32 in 10.0 mi Variable 4.6 mph - N/A   Clear
7:53 AM 41.0 °F 38.0 °F 28.0 °F 60% 30.32 in 10.0 mi SSE 4.6 mph - N/A   Clear
8:53 AM 44.1 °F 40.8 °F 28.9 °F 55% 30.32 in 10.0 mi Variable 5.8 mph - N/A   Clear
9:53 AM 48.9 °F - 28.9 °F 46% 30.30 in 10.0 mi Variable 5.8 mph - N/A   Clear
10:53 AM 52.0 °F - 28.9 °F 41% 30.30 in 10.0 mi South 10.4 mph - N/A   Clear
11:53 AM 55.9 °F - 30.0 °F 37% 30.29 in 10.0 mi SSW 5.8 mph - N/A   Clear
12:53 PM 59.0 °F - 30.9 °F 35% 30.27 in 10.0 mi Variable 5.8 mph - N/A   Clear
1:53 PM 61.0 °F - 32.0 °F 34% 30.25 in 10.0 mi SSW 6.9 mph - N/A   Clear
2:53 PM 62.1 °F - 33.1 °F 34% 30.24 in 10.0 mi Variable 3.5 mph - N/A   Partly Cloudy
3:53 PM 64.0 °F - 35.1 °F 34% 30.22 in 10.0 mi West 10.4 mph 16.1 mph N/A   Clear
4:53 PM 62.1 °F - 37.0 °F 39% 30.22 in 10.0 mi West 11.5 mph 18.4 mph N/A   Overcast
5:53 PM 59.0 °F - 39.0 °F 48% 30.24 in 10.0 mi NW 11.5 mph - N/A   Overcast
6:53 PM 59.0 °F - 37.9 °F 46% 30.24 in 10.0 mi NW 8.1 mph - N/A   Partly Cloudy
7:53 PM 55.0 °F - 37.9 °F 53% 30.24 in 10.0 mi North 8.1 mph - N/A   Clear
8:53 PM 50.0 °F - 37.9 °F 63% 30.25 in 10.0 mi North 6.9 mph - N/A   Clear
9:53 PM 46.0 °F 41.9 °F 37.9 °F 73% 30.27 in 10.0 mi NNE 8.1 mph - N/A   Clear
11:53 PM 44.1 °F 40.1 °F 39.0 °F 82% 30.28 in 10.0 mi NE 6.9 mph - N/A   Partly Cloudy